EHI
0 0 1 1 1 2 3 3 3 3 3 3 2 1 0 0 0 1 2 3 3 1 1 1 1 2 5 7 7 6 5 4 3 3 4 4 4 3 4 4 4 3 2
0 0 1 2 2 3 3 3 3 2 2 1 1 0 0 0 0 1 2 3 3 2 2 1 1 3 5 6 6 5 5 4 3 3 3 4 3 3 3 4 3 3 3
0 0 1 2 2 2 2 2 2 1 0 0 0 0 0 0 0 1 2 3 3 3 3 2 2 3 4 4 4 4 4 3 3 3 3 3 3 3 3 4 4 3 3
0 0 0 1 1 1 1 1 1 0 0 0 0 0 0 0 0 1 2 2 2 3 3 2 2 3 4 3 3 3 3 4 3 3 3 3 3 3 4 4 4 4 3
0 0 0 0 0 0 0 0 0 0 0 0 0 0 0 0 0 1 1 2 2 2 2 2 3 3 3 3 3 3 4 4 4 3 3 3 3 3 3 4 4 3 3
0 0 0 0 0 0 0 0 0 0 0 0 0 0 0 0 1 2 2 2 2 3 3 3 3 3 3 3 3 4 4 4 3 3 3 3 3 3 3 3 3 3 3
0 0 0 0 0 0 0 0 0 1 1 0 0 0 0 0 1 3 3 3 3 3 4 3 3 3 3 3 3 3 4 3 3 3 3 3 3 3 3 3 3 3 3
0 0 0 0 0 0 0 0 0 1 2 1 1 0 0 1 2 3 3 3 3 3 3 3 3 4 3 3 3 3 3 3 3 3 3 3 3 3 3 3 3 3 3
0 0 0 0 0 0 0 0 0 1 2 3 2 1 1 2 3 3 3 3 3 3 3 3 4 4 4 3 3 3 3 3 3 3 3 3 3 3 3 3 3 3 3
0 0 0 0 0 0 0 0 0 1 2 3 3 3 3 3 3 3 3 3 3 3 3 2 3 3 3 2 2 3 3 3 3 3 3 3 3 3 3 3 3 3 3
0 0 0 0 0 0 0 0 0 0 1 1 2 3 3 3 3 2 2 2 2 2 1 1 1 1 1 1 1 1 2 3 3 3 3 3 3 4 3 3 3 3 3
0 0 0 0 0 0 0 0 0 0 0 0 1 2 2 2 1 1 1 1 1 1 0 0 0 0 0 0 0 0 1 2 3 3 3 3 4 4 4 3 3 3 3
0 0 0 0 0 0 0 0 0 0 0 0 0 1 1 1 0 0 0 0 0 0 0 0 0 0 0 0 0 0 0 0 1 2 3 3 4 5 4 3 3 3 3
0 0 0 0 0 0 0 0 0 0 0 0 0 0 0 0 0 0 0 0 0 0 0 0 0 0 0 0 0 0 0 0 0 1 2 3 4 5 5 4 3 3 3
0 0 0 0 0 0 0 0 0 0 0 0 0 0 0 0 0 0 0 0 0 0 0 0 0 0 0 0 0 0 0 0 0 0 1 2 3 4 4 4 3 3 3
0 0 0 0 0 0 0 0 0 0 0 0 0 0 0 0 0 0 0 0 0 0 0 0 0 0 0 0 0 0 0 0 0 0 0 1 1 3 4 4 4 3 3
0 0 0 0 0 0 0 0 0 0 0 0 0 0 0 0 0 0 0 0 0 0 0 0 0 0 0 0 0 0 0 0 0 0 0 0 0 1 3 3 4 4 4
0 0 0 0 0 0 0 0 0 0 0 0 0 0 0 0 0 0 0 0 0 0 0 0 0 0 0 0 0 0 0 0 0 0 0 0 0 0 1 2 2 3 3
0 0 0 0 0 0 0 0 0 0 0 0 0 0 0 0 0 0 0 0 0 0 0 0 0 0 0 0 0 0 0 0 0 0 0 0 0 0 0 0 0 1 1
0 0 0 0 0 0 0 0 0 0 0 0 0 0 0 0 0 0 0 0 0 0 0 0 0 0 0 0 0 0 0 0 0 0 0 0 0 0 0 0 0 0 0
0 0 0 0 0 0 0 0 0 0 0 0 0 0 0 0 0 0 0 0 0 0 0 0 0 0 0 0 0 0 0 0 0 0 0 0 0 0 0 0 0 0 0
0 0 0 0 0 0 0 0 0 0 0 0 0 0 0 0 0 0 0 0 0 0 0 0 0 0 0 0 0 0 0 0 0 0 0 0 0 0 0 0 0 0 0
0 0 0 0 0 0 0 0 0 0 0 0 0 0 0 0 0 0 0 0 0 0 0 0 0 0 0 0 0 0 0 0 0 0 0 0 0 0 0 0 0 0 0
0 0 0 0 0 0 0 0 0 0 0 0 0 0 0 0 0 0 0 0 0 0 0 0 0 0 0 0 0 0 0 0 0 0 0 0 0 0 0 0 0 0 0
0 0 0 0 0 0 0 0 0 0 0 0 0 0 0 0 0 0 0 0 0 0 0 0 0 0 0 0 0 0 0 0 0 0 0 0 0 0 0 0 0 0 0
0 0 0 0 0 0 0 0 0 0 0 0 0 0 0 0 0 0 0 0 0 0 0 0 0 0 0 0 0 0 0 0 0 0 0 0 0 0 0 0 0 0 0
Wind_Speed
3 4 5 6 7 8 9 9 10 10 10 10 10 10 9 9 9 9 8 8 8 7 7 7 7 8 8 8 7 7 7 8 8 7 7 7 7 6 6 5 3 5 7
4 5 6 6 8 8 9 9 10 10 10 10 9 9 9 9 9 8 8 8 8 7 7 7 7 7 7 7 7 7 7 7 7 6 5 6 7 7 7 6 6 6 7
5 5 6 7 7 8 9 10 10 10 10 9 9 9 9 8 8 8 8 8 7 7 7 7 7 7 7 7 7 7 7 7 6 5 1 3 8 8 7 7 6 6 6
6 5 6 8 8 8 9 10 10 10 9 9 9 8 8 8 8 8 8 8 8 7 7 7 6 7 7 7 7 7 7 6 5 2 1 5 6 9 7 7 6 6 5
6 6 8 8 9 9 9 10 9 9 9 9 9 8 8 8 8 7 7 8 8 7 7 7 7 7 7 7 7 6 6 6 3 2 5 5 6 8 7 7 7 6 5
6 7 8 8 9 9 9 9 9 9 8 8 8 8 7 7 8 7 7 8 8 8 8 7 7 7 7 7 7 7 6 4 0 4 4 4 5 8 7 6 6 6 5
7 7 8 9 9 9 9 9 9 9 8 8 8 8 7 7 8 8 8 8 8 8 8 8 8 7 7 7 7 7 6 4 3 4 4 4 6 7 6 6 6 6 6
7 7 8 9 8 8 9 8 9 9 9 9 9 8 8 8 8 8 8 8 8 8 8 8 9 8 8 8 9 8 7 4 4 5 5 4 7 6 5 5 5 5 5
7 7 6 7 9 9 9 9 9 9 9 9 9 8 8 8 8 8 8 8 9 8 9 9 9 9 9 10 9 9 8 6 4 3 4 4 6 5 5 5 5 5 5
7 7 7 6 6 7 8 9 9 9 8 8 8 7 6 6 7 6 7 8 8 8 9 9 9 9 9 9 9 8 5 2 4 4 4 6 7 5 5 5 5 4 4
6 6 6 6 6 5 6 7 6 6 6 4 6 5 1 3 5 5 10 8 8 8 9 9 9 8 8 9 8 5 2 3 4 4 5 8 8 7 6 5 5 4 4
6 6 5 5 5 5 4 4 3 4 4 4 4 4 3 4 4 5 8 7 7 7 8 8 6 5 2 4 5 2 3 4 4 4 6 9 8 7 6 6 5 5 5
6 6 5 5 5 4 3 3 2 2 3 3 4 4 3 3 3 3 3 4 4 4 5 5 3 4 4 4 4 4 5 4 3 4 7 10 9 8 7 7 6 6 6
5 5 5 4 4 4 3 3 2 2 2 2 3 4 3 2 2 3 2 3 3 3 3 3 3 5 5 6 5 6 6 4 4 4 7 11 10 9 8 7 7 7 6
5 5 4 3 3 3 3 2 2 3 2 3 2 2 3 2 3 3 3 3 3 3 3 3 4 6 5 6 6 6 6 6 5 5 5 11 12 11 10 9 8 8 7
5 5 4 3 3 2 2 2 2 2 2 2 2 3 3 2 3 2 3 3 3 3 3 3 5 4 4 5 6 6 6 5 5 5 5 7 11 13 12 10 9 9 9
5 5 5 3 3 3 3 3 2 2 2 2 2 3 3 3 2 2 3 3 3 3 4 3 5 3 4 5 6 5 5 6 5 6 5 4 5 10 13 12 12 11 11
5 5 5 3 3 3 2 2 2 2 3 2 2 2 3 3 3 2 2 3 3 3 3 3 3 3 4 4 4 4 4 4 5 5 5 5 5 5 9 12 12 12 12
5 5 6 5 4 3 3 2 2 3 2 2 2 2 2 3 3 3 2 2 3 2 2 3 3 3 4 4 4 3 4 4 4 5 6 6 6 6 5 8 10 12 13
5 6 6 5 4 4 2 2 2 2 2 2 3 3 4 3 3 3 2 2 2 2 2 2 4 3 3 2 3 3 3 3 4 5 5 5 5 7 7 6 5 7 12
6 6 6 6 5 4 2 2 1 2 2 2 3 3 3 3 3 2 1 2 1 2 2 3 3 4 2 1 1 2 3 4 4 4 4 4 5 6 6 6 5 5 5
7 7 7 6 5 4 2 1 1 2 2 3 2 3 3 3 3 2 2 2 2 2 2 2 2 1 2 0 1 1 1 3 3 4 3 3 4 4 5 6 6 6 5
8 8 6 7 6 5 4 2 2 2 2 2 3 2 3 3 3 3 3 2 2 1 2 1 1 1 1 1 1 2 2 2 2 3 4 3 4 4 4 4 5 6 6
9 8 7 7 7 6 5 4 3 2 2 2 2 2 3 3 4 3 3 2 2 2 2 1 1 0 1 0 1 1 3 2 1 2 2 3 4 4 4 4 4 5 5
9 8 7 7 6 6 5 4 3 2 2 2 2 3 3 4 4 3 3 2 2 2 2 1 1 0 1 1 1 1 1 0 2 1 1 2 2 3 3 4 3 3 4
9 8 7 7 6 5 5 5 4 3 3 3 3 3 2 3 3 4 3 2 2 2 2 1 1 1 1 1 1 1 1 1 1 1 0 1 1 2 3 2 2 3 3
Wind_Direction
90 80 88 103 105 101 99 99 96 94 94 94 92 91 90 88 86 83 80 79 78 76 75 74 72 70 69 68 68 70 71 72 73 73 75 76 74 76 77 74 88 101 85
98 91 94 103 103 100 100 97 95 92 90 88 88 88 87 85 83 80 77 75 77 76 76 75 71 70 68 68 69 69 71 70 71 72 81 98 83 73 74 69 51 63 77
101 103 107 97 98 99 100 98 95 92 90 87 84 85 84 82 80 78 75 72 73 75 77 77 75 71 68 67 71 68 67 68 68 68 92 91 92 79 70 67 69 72 73
106 106 97 98 97 98 98 95 95 92 89 87 84 83 79 76 75 75 73 72 74 76 77 76 75 70 66 66 69 69 66 63 61 20 79 67 75 78 69 64 66 72 74
105 102 97 100 97 96 96 94 94 90 85 82 80 79 75 73 73 71 72 72 73 75 73 71 71 69 66 67 70 70 66 59 51 18 57 63 68 72 63 61 60 63 68
105 101 98 97 95 95 97 95 90 86 84 82 80 79 76 75 76 73 72 72 73 74 71 71 73 74 71 71 73 72 67 59 355 63 60 65 71 71 61 58 57 56 56
100 97 98 94 93 95 93 90 86 82 81 81 78 74 72 72 73 74 72 70 71 73 72 70 72 75 73 72 72 71 67 45 46 69 64 62 65 65 62 59 56 56 52
96 95 102 98 87 91 90 84 81 77 76 78 75 71 70 69 68 69 71 71 72 74 74 74 73 75 73 73 70 65 52 11 65 59 61 60 60 55 60 59 52 54 46
97 94 94 102 103 101 93 81 78 74 72 71 70 67 67 68 68 69 72 71 73 76 78 77 76 77 77 75 71 66 60 34 36 43 51 61 60 51 59 60 51 50 42
103 101 97 91 90 94 101 87 73 68 66 68 68 65 70 92 91 90 90 74 73 77 80 79 78 80 80 76 72 67 56 30 43 42 41 62 57 50 61 62 54 49 43
104 103 100 97 88 82 84 89 90 85 72 85 93 82 77 84 88 100 70 71 74 78 81 79 80 84 90 89 77 65 38 43 56 45 46 52 49 50 57 61 56 50 43
121 114 107 104 97 90 82 88 73 70 67 55 58 68 64 66 64 71 92 80 80 89 95 86 94 114 122 94 98 100 58 54 55 60 58 49 47 49 56 63 59 52 48
126 122 115 107 98 93 93 76 61 61 66 63 58 72 70 79 99 88 101 113 106 114 98 108 121 80 75 67 54 57 48 46 51 55 57 46 42 44 53 63 62 55 51
126 121 114 112 108 98 87 76 65 69 65 61 58 56 61 61 65 71 73 75 81 79 76 79 74 77 74 74 68 62 57 49 54 58 58 45 40 40 47 55 60 54 47
135 132 122 120 102 92 79 65 73 63 48 72 58 53 60 59 66 73 78 80 79 86 96 81 76 74 67 63 61 60 56 50 51 54 64 53 41 40 43 50 54 52 43
142 134 131 127 106 92 95 87 66 60 70 54 57 59 63 64 67 66 78 79 77 80 82 87 82 83 77 70 64 59 50 52 51 56 58 69 57 44 42 46 47 48 43
144 145 140 134 119 105 86 75 74 63 74 69 55 45 61 58 66 69 77 86 85 91 96 87 86 81 85 83 73 63 58 47 47 51 50 44 62 63 47 42 46 46 46
157 151 147 148 131 106 93 88 87 71 63 61 53 32 47 55 60 68 78 87 94 96 97 93 96 93 87 79 72 62 63 55 48 48 53 54 44 48 61 48 44 44 46
168 161 158 154 144 121 104 102 86 84 67 61 56 40 34 47 55 80 72 83 103 104 102 103 94 91 89 84 80 69 59 52 45 46 50 47 50 46 51 68 60 50 45
175 168 161 155 152 134 127 116 109 92 84 72 57 49 43 43 50 77 102 100 101 111 104 103 104 94 90 85 79 77 66 64 55 45 42 46 43 46 42 42 59 70 58
177 175 169 168 155 152 148 154 131 107 102 82 63 54 52 52 51 67 92 95 84 100 112 124 117 119 114 107 118 112 107 75 56 58 43 39 53 46 45 48 43 40 69
179 182 178 174 169 166 160 148 118 103 94 73 71 65 44 50 51 59 82 103 104 114 133 139 144 141 125 205 307 293 156 133 88 60 54 41 43 50 42 43 49 48 39
183 183 184 179 175 173 163 147 136 134 143 115 95 80 51 49 56 56 60 70 90 120 125 139 165 182 179 155 352 328 333 47 94 90 55 54 50 44 46 36 39 44 45
187 185 187 183 183 175 172 177 169 169 133 106 104 97 90 72 69 61 67 67 82 80 110 149 146 233 258 234 112 349 354 11 310 113 112 70 55 45 38 38 32 37 42
183 184 188 182 183 177 183 181 202 176 125 118 121 112 102 85 75 74 68 68 76 83 95 90 86 312 284 324 344 6 34 349 299 343 89 89 83 60 44 34 32 32 35
181 184 184 182 178 176 186 188 194 158 147 140 138 127 120 105 93 86 75 72 72 74 80 74 88 99 3 4 338 345 332 341 10 17 102 110 81 69 58 42 27 34 35